[[{"header":{"parameterUnit":"m.s-1","parameterCategory":1,"la1":30.2991,"la2":30.254,"lo1":-89.0895,"lo2":-89.0444,"dy":0.0017,"dx":0.0017,"nx":28,"ny":28,"refTime":"2024-06-11T09:00:00:Z","depth":0,"parameterNumber":2,"parameterNumberName":"U-component_of_WINDS"},"data":[0,0,0,0,0,0,0,0,0,0,0,0,0,0,0,0,0,0,0,0,0,0,0,0,0,0,0,0,0,0,0,0,0,0,0,0,0,0,0,0,0,0,0,0,0,0,0,0,0,0,0,0,0,0,0,0,0,0,-0.5636,-0.5636,0,-0.5592,-0.5591,-0.5591,-0.5528,-0.5527,-0.5526,-0.5525,-0.548,-0.548,-0.5479,0,0,0,0,0,0,0,0,0,0,0,0,0,-0.5667,-0.5667,-0.5636,-0.5636,-0.5635,-0.5592,-0.5591,-0.559,-0.5529,-0.5527,-0.5526,-0.5525,-0.548,-0.548,-0.5479,0,0,0,0,0,0,0,0,0,0,0,0,0,-0.5641,-0.5667,-0.5636,-0.5599,-0.5595,-0.5592,-0.5591,-0.559,-0.5529,-0.5527,-0.5526,-0.5524,-0.548,-0.548,-0.5479,-0.5509,0,0,-0.5478,-0.5478,0,0,0,0,0,0,0,0,-0.5643,-0.564,-0.5605,-0.5601,-0.5597,-0.5564,-0.5585,-0.5563,-0.5529,-0.5554,-0.5525,-0.5523,-0.5509,-0.5506,-0.5501,-0.5507,-0.5505,-0.5478,-0.5478,-0.5478,-0.5478,0,0,0,0,0,0,0,-0.5645,-0.5642,-0.5618,-0.5604,-0.56,-0.5584,-0.5579,-0.5581,-0.5541,-0.5552,-0.5547,-0.5543,-0.5507,-0.5502,-0.55,-0.5504,-0.5478,-0.5478,-0.5478,-0.5478,-0.5533,-0.5535,0,0,0,0,0,0,-0.5652,-0.5644,-0.562,-0.5617,-0.5617,-0.5585,-0.5579,-0.5576,-0.5541,-0.5534,-0.5544,-0.554,-0.5503,-0.55,-0.5498,-0.5532,-0.5478,-0.5478,-0.5477,-0.5531,-0.5533,-0.5535,0,0,0,0,0,0,-0.5653,-0.5651,-0.5622,-0.5629,-0.5624,-0.5586,-0.5584,-0.5576,-0.5571,-0.5535,-0.5528,-0.5547,-0.5502,-0.5499,-0.5507,-0.5529,-0.5477,-0.5477,-0.5529,-0.5532,-0.5534,-0.5599,0,0,0,0,0,0,-0.5654,-0.5651,-0.5662,-0.563,-0.5624,-0.5632,-0.5585,-0.5576,-0.5571,-0.5565,-0.5535,-0.5529,-0.55,-0.5508,-0.5507,-0.5528,-0.5477,-0.5527,-0.553,-0.5533,-0.5595,-0.5604,-0.5611,0,0,0,0,0,-0.5656,-0.5682,-0.5663,-0.5661,-0.5637,-0.5633,-0.563,-0.5596,-0.5573,-0.5584,-0.5561,-0.553,-0.5527,-0.5509,-0.5507,-0.5529,-0.5526,-0.553,-0.5533,-0.5591,-0.5602,-0.5611,0,0,0,0,0,0,-0.5718,-0.5677,-0.5656,-0.5673,-0.5657,-0.5623,-0.5635,-0.5608,-0.5599,-0.5594,-0.5553,-0.5546,-0.5561,-0.5545,-0.5526,-0.5556,-0.5522,-0.5525,-0.5566,-0.5576,-0.5584,-0.5588,-0.5477,0,0,0,0,0,-0.5734,-0.5734,-0.5698,-0.5716,-0.571,-0.5674,-0.5671,-0.5646,-0.5628,-0.5622,-0.5599,-0.5582,-0.5578,-0.5576,-0.5569,-0.5591,-0.5585,-0.5605,-0.5613,-0.562,-0.5624,-0.5636,-0.5646,-0.5547,-0.5547,-0.5547,0,0,-0.5767,-0.5744,-0.5747,-0.5728,-0.5713,-0.5715,-0.5669,-0.5672,-0.5673,-0.5622,-0.5629,-0.5612,-0.5591,-0.5607,-0.5613,-0.5594,-0.565,-0.5625,-0.5631,-0.5631,-0.5641,-0.5651,-0.5659,-0.555,-0.555,-0.5549,0,0,-0.5827,-0.581,-0.5824,-0.581,-0.5787,-0.5763,-0.5767,-0.5736,-0.5723,-0.573,-0.5692,-0.5692,-0.5684,-0.5671,-0.5664,-0.5719,-0.5692,-0.5718,-0.5761,-0.5773,-0.5781,-0.5788,-0.581,-0.5818,-0.5722,-0.5722,-0.5722,0,-0.5871,-0.5872,-0.5834,-0.584,-0.5834,-0.5787,-0.5802,-0.5789,-0.5766,-0.5763,-0.5743,-0.5733,-0.5715,-0.5728,-0.5742,-0.5737,-0.574,-0.5723,-0.5783,-0.5789,-0.5795,-0.5815,-0.5823,-0.5726,-0.5725,-0.5725,-0.5725,0,-0.5927,-0.5928,-0.5942,-0.5922,-0.5916,-0.5926,-0.5891,-0.589,-0.5865,-0.5844,-0.5851,-0.5828,-0.5817,-0.5818,-0.5794,-0.5828,-0.5817,-0.579,-0.5755,-0.5809,-0.5827,-0.5834,-0.5731,-0.573,-0.5728,-0.5728,0,0,-0.6028,-0.5986,-0.5992,-0.5983,-0.5954,-0.5955,-0.5962,-0.5951,-0.5952,-0.5937,-0.5944,-0.5938,-0.5913,-0.5905,-0.5879,-0.5889,-0.5937,-0.5861,-0.586,-0.5878,-0.5975,-0.5997,-0.6007,-0.5917,-0.5918,-0.5919,-0.5977,0,-0.6085,-0.6097,-0.6064,-0.6084,-0.6085,-0.604,-0.6047,-0.6031,-0.6011,-0.6009,-0.5986,-0.5984,-0.595,-0.5945,-0.5953,-0.593,-0.5956,-0.5924,-0.5924,-0.5925,-0.5933,-0.6016,-0.6039,-0.6095,-0.5984,-0.5985,-0.5986,0,-0.6154,-0.6143,-0.6164,-0.6135,-0.6134,-0.6141,-0.6129,-0.6127,-0.6108,-0.6092,-0.6083,-0.6052,-0.6058,-0.6023,-0.6031,-0.6011,-0.6008,-0.5996,-0.5998,-0.5998,-0.596,-0.6021,-0.6111,-0.6121,-0.5996,-0.5996,-0.5995,0,-0.6228,-0.6218,-0.623,-0.6223,-0.6189,-0.6195,-0.6181,-0.616,-0.6156,-0.6144,-0.6142,-0.6131,-0.6126,-0.6119,-0.6086,-0.6063,-0.6099,-0.6061,-0.6088,-0.6089,-0.6099,-0.61,-0.6193,-0.6094,-0.6094,-0.6094,-0.6093,0,-0.6297,-0.6312,-0.6263,-0.6271,-0.6286,-0.6247,-0.6263,-0.6245,-0.6226,-0.6229,-0.6189,-0.6193,-0.6149,-0.6148,-0.6123,-0.6135,-0.6132,-0.612,-0.6114,-0.6126,-0.6127,-0.6125,-0.6121,-0.6096,-0.6095,-0.6095,-0.6095,0,-0.6383,-0.6351,-0.6361,-0.6328,-0.632,-0.6333,-0.6305,-0.631,-0.6287,-0.6292,-0.629,-0.6254,-0.6251,-0.6218,-0.6207,-0.619,-0.6212,-0.6197,-0.6219,-0.6215,-0.6245,-0.6244,-0.6343,-0.6354,-0.6246,-0.6247,-0.6248,0,-0.6431,-0.6441,-0.6409,-0.6409,-0.6397,-0.6396,-0.6392,-0.6353,-0.635,-0.6328,-0.6337,-0.633,-0.6324,-0.6321,-0.6294,-0.6285,-0.6271,-0.6306,-0.627,-0.6281,-0.6274,-0.6275,-0.6277,-0.6315,-0.6316,-0.6317,-0.6318,0,-0.6519,-0.6502,-0.6497,-0.6487,-0.6483,-0.6473,-0.646,-0.6462,-0.6419,-0.6418,-0.6415,-0.6409,-0.6399,-0.6393,-0.638,-0.6366,-0.6336,-0.633,-0.6336,-0.6349,-0.6363,-0.6358,-0.6243,-0.6328,-0.6327,-0.6327,-0.6326,-0.6326,-0.6588,-0.6596,-0.6575,-0.6571,-0.6558,-0.6547,-0.6551,-0.6528,-0.6525,-0.6513,-0.649,-0.6491,-0.647,-0.645,-0.6438,-0.6438,-0.642,-0.6428,-0.6431,-0.6434,-0.6441,-0.6361,-0.6435,-0.6435,-0.6434,-0.6434,-0.6434,0,-0.6676,-0.666,-0.6657,-0.6641,-0.6638,-0.6609,-0.6593,-0.6593,-0.6594,-0.6578,-0.6572,-0.6568,-0.6563,-0.6535,-0.6526,-0.6532,-0.6518,-0.6531,-0.6532,-0.6529,-0.6457,-0.6453,-0.6543,-0.6543,-0.6543,-0.6543,-0.6543,-0.6543,-0.6722,-0.6734,-0.6715,-0.672,-0.6704,-0.6704,-0.6698,-0.6688,-0.6675,-0.6673,-0.6669,-0.665,-0.6629,-0.6619,-0.6613,-0.6605,-0.6605,-0.6623,-0.6611,-0.6544,-0.6534,-0.6524,-0.6521,-0.6623,-0.6623,-0.6683,-0.6684,-0.6684]},{"header":{"parameterUnit":"m.s-1","parameterCategory":1,"la1":30.2991,"la2":30.254,"lo1":-89.0895,"lo2":-89.0444,"dy":0.0017,"dx":0.0017,"nx":28,"ny":28,"refTime":"2024-06-11T09:00:00:Z","depth":0,"parameterNumber":3,"parameterNumberName":"V-component_of_WINDS"},"data":[0,0,0,0,0,0,0,0,0,0,0,0,0,0,0,0,0,0,0,0,0,0,0,0,0,0,0,0,0,0,0,0,0,0,0,0,0,0,0,0,0,0,0,0,0,0,0,0,0,0,0,0,0,0,0,0,0,0,1.5643,1.5642,0,1.5526,1.5525,1.5524,1.5444,1.5443,1.5442,1.5442,1.5316,1.5313,1.5311,0,0,0,0,0,0,0,0,0,0,0,0,0,1.5793,1.5791,1.5643,1.5642,1.564,1.5527,1.5525,1.5523,1.5444,1.5443,1.5442,1.5442,1.5317,1.5314,1.531,0,0,0,0,0,0,0,0,0,0,0,0,0,1.5707,1.579,1.5644,1.5587,1.5581,1.5527,1.5525,1.5523,1.5444,1.5443,1.5442,1.5441,1.5318,1.5314,1.531,1.5301,0,0,1.5297,1.5295,0,0,0,0,0,0,0,0,1.5712,1.5702,1.5597,1.5591,1.5584,1.5499,1.5531,1.5448,1.5444,1.5496,1.5442,1.5441,1.5377,1.5368,1.5348,1.5295,1.529,1.5297,1.5294,1.5292,1.5291,0,0,0,0,0,0,0,1.5718,1.5706,1.5597,1.5595,1.5587,1.5566,1.5553,1.5515,1.5442,1.5491,1.5485,1.5473,1.5373,1.5352,1.5344,1.5288,1.5297,1.5293,1.529,1.5289,1.5221,1.5222,0,0,0,0,0,0,1.5734,1.5712,1.56,1.5593,1.5647,1.5564,1.5549,1.5527,1.5443,1.5429,1.5473,1.5469,1.536,1.5349,1.5339,1.5322,1.5292,1.5288,1.5286,1.522,1.5221,1.5222,0,0,0,0,0,0,1.5737,1.5725,1.5605,1.5651,1.5634,1.5562,1.5538,1.5525,1.5503,1.5429,1.5415,1.5465,1.5359,1.5345,1.5311,1.5317,1.5286,1.5283,1.5219,1.522,1.5221,1.5288,0,0,0,0,0,0,1.5742,1.5726,1.5723,1.5651,1.5632,1.5581,1.5538,1.5523,1.5497,1.5491,1.5418,1.5405,1.5357,1.5318,1.5307,1.531,1.5279,1.5218,1.522,1.5221,1.5285,1.5292,1.5297,0,0,0,0,0,1.5747,1.5745,1.5723,1.571,1.5627,1.5581,1.557,1.5516,1.5498,1.5493,1.5446,1.5407,1.5319,1.5315,1.5302,1.5304,1.5218,1.5219,1.5221,1.5283,1.529,1.5297,0,0,0,0,0,0,1.5817,1.5735,1.5709,1.5685,1.5641,1.5568,1.556,1.5526,1.5485,1.548,1.5413,1.5398,1.537,1.5334,1.5332,1.5291,1.5263,1.5263,1.5315,1.5322,1.5327,1.5335,1.5276,0,0,0,0,0,1.583,1.5802,1.5731,1.5716,1.5695,1.5632,1.561,1.5573,1.5524,1.5504,1.5454,1.5406,1.5367,1.5343,1.5303,1.5281,1.5263,1.5276,1.5282,1.5287,1.5286,1.527,1.5274,1.5227,1.5227,1.5227,0,0,1.5855,1.5807,1.5793,1.5728,1.569,1.566,1.5617,1.5587,1.5563,1.5499,1.5463,1.5426,1.5368,1.534,1.5324,1.5308,1.5296,1.5289,1.5294,1.529,1.5272,1.5277,1.5281,1.5228,1.5228,1.5228,0,0,1.5886,1.5848,1.583,1.5793,1.5737,1.5695,1.5691,1.5624,1.5597,1.5561,1.5512,1.5483,1.5418,1.5378,1.535,1.5368,1.533,1.5357,1.5386,1.5372,1.5375,1.5378,1.5382,1.5385,1.5357,1.5357,1.5357,0,1.5924,1.5878,1.5825,1.5798,1.5771,1.5715,1.5695,1.5662,1.5594,1.5576,1.556,1.5478,1.5435,1.5396,1.5401,1.538,1.5372,1.5363,1.538,1.5382,1.5384,1.5387,1.5389,1.5361,1.536,1.536,1.536,0,1.5927,1.5896,1.5889,1.5827,1.5799,1.5777,1.5719,1.5697,1.5663,1.5622,1.5586,1.5534,1.5482,1.5471,1.5437,1.5427,1.5419,1.5393,1.5363,1.5392,1.5394,1.5395,1.5365,1.5364,1.5363,1.5362,0,0,1.5994,1.5906,1.5903,1.5875,1.5809,1.5783,1.5758,1.571,1.5691,1.5648,1.5623,1.5571,1.5547,1.5514,1.5476,1.5463,1.5479,1.5438,1.5436,1.5445,1.5462,1.548,1.5483,1.5455,1.5455,1.5455,1.5466,0,1.6012,1.5965,1.5917,1.5886,1.5856,1.5804,1.5781,1.5738,1.57,1.5668,1.5626,1.5589,1.5561,1.5541,1.5527,1.548,1.5481,1.5479,1.5429,1.5428,1.5442,1.5484,1.5503,1.5516,1.5467,1.5467,1.5467,0,1.6026,1.5987,1.5954,1.5891,1.5877,1.5858,1.581,1.5781,1.573,1.5704,1.567,1.5629,1.5598,1.5576,1.5531,1.5531,1.5508,1.5482,1.5481,1.5472,1.5447,1.5473,1.5519,1.552,1.5468,1.5468,1.5468,0,1.6076,1.6015,1.5986,1.5964,1.5891,1.5879,1.5848,1.5797,1.5771,1.5729,1.5711,1.5666,1.564,1.5605,1.5553,1.5541,1.5513,1.5486,1.5487,1.5489,1.548,1.5481,1.552,1.5472,1.5472,1.5472,1.5472,0,1.6099,1.608,1.6008,1.599,1.5967,1.5913,1.5891,1.5855,1.581,1.5783,1.5736,1.5711,1.5645,1.5613,1.5572,1.554,1.5529,1.5505,1.5494,1.5507,1.551,1.5489,1.5485,1.5472,1.5472,1.5472,1.5472,0,1.6149,1.61,1.6065,1.6001,1.5984,1.5969,1.5913,1.5893,1.5854,1.5821,1.581,1.5748,1.5707,1.5653,1.5594,1.5567,1.5539,1.5523,1.5556,1.5549,1.5553,1.5552,1.5577,1.5576,1.5532,1.5532,1.5533,0,1.6165,1.6149,1.6084,1.6063,1.6034,1.6002,1.5976,1.5922,1.5897,1.5839,1.5826,1.5782,1.5744,1.5681,1.5629,1.5584,1.5565,1.5577,1.5558,1.5572,1.5562,1.5563,1.556,1.5581,1.5582,1.5582,1.5583,0,1.6199,1.6176,1.6141,1.6098,1.6069,1.6033,1.5993,1.5979,1.5917,1.5891,1.585,1.5821,1.5762,1.5718,1.5667,1.5633,1.5597,1.559,1.5588,1.56,1.5618,1.5606,1.5566,1.5589,1.5588,1.5588,1.5587,1.5587,1.623,1.6213,1.6165,1.6128,1.6093,1.6058,1.6037,1.5996,1.5961,1.5911,1.5882,1.5841,1.5791,1.5719,1.5687,1.5653,1.5639,1.5636,1.5635,1.5634,1.5637,1.5627,1.5644,1.5644,1.5644,1.5643,1.5643,0,1.6259,1.6226,1.6193,1.614,1.6111,1.6084,1.6039,1.6016,1.5982,1.5939,1.5903,1.5856,1.5814,1.576,1.5714,1.5697,1.5679,1.5687,1.5685,1.5678,1.5654,1.566,1.5702,1.5702,1.5702,1.5702,1.5702,1.5702,1.627,1.624,1.6212,1.6165,1.6131,1.6092,1.6069,1.6036,1.6002,1.5952,1.5918,1.5884,1.5837,1.5787,1.5747,1.5732,1.5715,1.5727,1.5707,1.5685,1.568,1.5675,1.5679,1.5725,1.5725,1.5733,1.5733,1.5734]}]]